Location: Igri�s
(42.2144°N, 0.4320°W)
Time: 08:05:42
(UTC+00:00)

Cosmos 2278 - Pass Details

Date: 13 August 2020
Orbit: 839 x 853 km, 71.1° (Epoch: 18 September)

Event Time Altitude Azimuth Distance (km) Brightness Sun altitude
Rises 20:40:50 0° 332° (NNW) 3,430 8.1 -16.3°
Reaches altitude 10° 20:43:19 10° 330° (NNW) 2,489 7.2 -16.7°
Maximum altitude 20:48:57 63° 250° (WSW) 945 4.0 -17.5°
Enters shadow 20:52:55 20° 174° (S) 1,878 5.1 -18.1°
